Time,TemperatureF,DewpointF,PressureIn,WindDirection,WindDirectionDegrees,WindSpeedMPH,WindSpeedGustMPH,Humidity,HourlyPrecipIn,Conditions,Clouds,dailyrainin,SolarRadiationWatts/m^2,SoftwareType,DateUTC
2013-01-24 00:03:00,6.0,-2.0,-100.00,ENE,76,1.0,3.0,68,0.00,,,0.00,0.000000,,2013-01-24 05:03:00,
2013-01-24 00:33:00,5.0,-2.0,-100.00,ENE,78,0.0,2.0,72,0.00,,,0.00,0.000000,,2013-01-24 05:33:00,
2013-01-24 00:43:00,5.0,-2.0,-100.00,ENE,78,0.0,2.0,72,0.00,,,0.00,0.000000,,2013-01-24 05:43:00,
2013-01-24 00:53:00,5.0,-2.0,-100.00,ENE,78,0.0,2.0,72,0.00,,,0.00,0.000000,,2013-01-24 05:53:00,
2013-01-24 01:03:00,5.0,-2.0,-100.00,ENE,78,0.0,2.0,72,0.00,,,0.00,0.000000,,2013-01-24 06:03:00,
2013-01-24 01:33:00,4.0,-2.0,-100.00,ENE,60,1.0,2.0,77,0.00,,,0.00,0.000000,,2013-01-24 06:33:00,
2013-01-24 01:42:00,4.0,-2.0,-100.00,ENE,60,1.0,2.0,77,0.00,,,0.00,0.000000,,2013-01-24 06:42:00,
2013-01-24 01:53:00,4.0,-2.0,-100.00,ENE,60,1.0,2.0,77,0.00,,,0.00,0.000000,,2013-01-24 06:53:00,
2013-01-24 02:03:00,4.0,-2.0,-100.00,ENE,60,1.0,2.0,77,0.00,,,0.00,0.000000,,2013-01-24 07:03:00,
2013-01-24 02:34:00,3.0,-2.0,-100.00,ENE,64,1.0,2.0,78,0.00,,,0.00,0.000000,,2013-01-24 07:34:00,
2013-01-24 02:43:00,3.0,-2.0,-100.00,ENE,64,1.0,2.0,78,0.00,,,0.00,0.000000,,2013-01-24 07:43:00,
2013-01-24 02:53:00,3.0,-2.0,-100.00,ENE,64,1.0,2.0,78,0.00,,,0.00,0.000000,,2013-01-24 07:53:00,
2013-01-24 03:02:00,3.0,-2.0,-100.00,ENE,64,1.0,2.0,78,0.00,,,0.00,0.000000,,2013-01-24 08:02:00,
2013-01-24 03:33:00,2.0,-4.0,-100.00,East,84,0.0,2.0,76,0.00,,,0.00,0.000000,,2013-01-24 08:33:00,
2013-01-24 03:43:00,2.0,-4.0,-100.00,East,84,0.0,2.0,76,0.00,,,0.00,0.000000,,2013-01-24 08:43:00,
2013-01-24 03:53:00,2.0,-4.0,-100.00,East,84,0.0,2.0,76,0.00,,,0.00,0.000000,,2013-01-24 08:53:00,
2013-01-24 04:03:00,2.0,-4.0,-100.00,East,84,0.0,2.0,76,0.00,,,0.00,0.000000,,2013-01-24 09:03:00,
2013-01-24 04:34:00,2.0,-4.0,-100.00,East,79,0.0,3.0,77,0.00,,,0.00,0.000000,,2013-01-24 09:34:00,
2013-01-24 04:43:00,2.0,-4.0,-100.00,East,79,0.0,3.0,77,0.00,,,0.00,0.000000,,2013-01-24 09:43:00,
2013-01-24 04:53:00,2.0,-4.0,-100.00,East,79,0.0,3.0,77,0.00,,,0.00,0.000000,,2013-01-24 09:53:00,
2013-01-24 05:03:00,2.0,-4.0,-100.00,East,79,0.0,3.0,77,0.00,,,0.00,0.000000,,2013-01-24 10:03:00,
2013-01-24 05:34:00,2.0,-4.0,-100.00,ENE,66,1.0,4.0,76,0.00,,,0.00,0.000000,,2013-01-24 10:34:00,
2013-01-24 05:43:00,2.0,-4.0,-100.00,ENE,66,1.0,4.0,76,0.00,,,0.00,0.000000,,2013-01-24 10:43:00,
2013-01-24 05:53:00,2.0,-4.0,-100.00,ENE,66,1.0,4.0,76,0.00,,,0.00,0.000000,,2013-01-24 10:53:00,
2013-01-24 06:03:00,2.0,-4.0,-100.00,ENE,66,1.0,4.0,76,0.00,,,0.00,0.000000,,2013-01-24 11:03:00,
2013-01-24 06:34:00,2.0,-4.0,-100.00,ENE,78,1.0,3.0,75,0.00,,,0.00,0.000000,,2013-01-24 11:34:00,
2013-01-24 06:43:00,2.0,-4.0,-100.00,ENE,78,1.0,3.0,75,0.00,,,0.00,0.000000,,2013-01-24 11:43:00,
2013-01-24 06:53:00,2.0,-4.0,-100.00,ENE,78,1.0,3.0,75,0.00,,,0.00,0.000000,,2013-01-24 11:53:00,
2013-01-24 07:03:00,2.0,-4.0,-100.00,ENE,78,1.0,3.0,75,0.00,,,0.00,0.000000,,2013-01-24 12:03:00,
2013-01-24 07:33:00,2.0,-5.0,-100.00,ENE,71,1.0,3.0,71,0.00,,,0.00,0.000000,,2013-01-24 12:33:00,
2013-01-24 07:43:00,2.0,-5.0,-100.00,ENE,71,1.0,3.0,71,0.00,,,0.00,0.000000,,2013-01-24 12:43:00,
2013-01-24 07:53:00,2.0,-5.0,-100.00,ENE,71,1.0,3.0,71,0.00,,,0.00,0.000000,,2013-01-24 12:53:00,
2013-01-24 08:03:00,2.0,-5.0,-100.00,ENE,71,1.0,3.0,71,0.00,,,0.00,0.000000,,2013-01-24 13:03:00,
2013-01-24 08:33:00,7.0,-1.0,-100.00,ENE,76,0.0,4.0,69,0.00,,,0.00,44.000000,,2013-01-24 13:33:00,
2013-01-24 08:43:00,7.0,-1.0,-100.00,ENE,76,0.0,4.0,69,0.00,,,0.00,44.000000,,2013-01-24 13:43:00,
2013-01-24 08:53:00,7.0,-1.0,-100.00,ENE,76,0.0,4.0,69,0.00,,,0.00,44.000000,,2013-01-24 13:53:00,
2013-01-24 09:03:00,7.0,-1.0,-100.00,ENE,76,0.0,4.0,69,0.00,,,0.00,44.000000,,2013-01-24 14:03:00,
2013-01-24 09:33:00,10.0,-3.0,-100.00,North,360,2.0,5.0,54,0.00,,,0.00,221.000000,,2013-01-24 14:33:00,
2013-01-24 09:43:00,10.0,-3.0,-100.00,North,360,2.0,5.0,54,0.00,,,0.00,221.000000,,2013-01-24 14:43:00,
2013-01-24 09:54:00,10.0,-3.0,-100.00,North,360,2.0,5.0,54,0.00,,,0.00,221.000000,,2013-01-24 14:54:00,
2013-01-24 10:04:00,10.0,-3.0,-100.00,North,360,2.0,5.0,54,0.00,,,0.00,221.000000,,2013-01-24 15:04:00,
2013-01-24 10:33:00,14.0,-1.0,-100.00,WNW,286,2.0,7.0,50,0.00,,,0.00,377.000000,,2013-01-24 15:33:00,
2013-01-24 10:43:00,14.0,-1.0,-100.00,WNW,286,2.0,7.0,50,0.00,,,0.00,377.000000,,2013-01-24 15:43:00,
2013-01-24 10:53:00,14.0,-1.0,-100.00,WNW,286,2.0,7.0,50,0.00,,,0.00,377.000000,,2013-01-24 15:53:00,
2013-01-24 11:04:00,14.0,-1.0,-100.00,WNW,286,2.0,7.0,50,0.00,,,0.00,377.000000,,2013-01-24 16:04:00,
2013-01-24 11:33:00,16.0,-1.0,-100.00,West,277,5.0,10.0,46,0.00,,,0.00,493.000000,,2013-01-24 16:33:00,
2013-01-24 11:43:00,16.0,-1.0,-100.00,West,277,5.0,10.0,46,0.00,,,0.00,493.000000,,2013-01-24 16:43:00,
2013-01-24 12:03:00,16.0,-1.0,-100.00,West,277,5.0,10.0,46,0.00,,,0.00,493.000000,,2013-01-24 17:03:00,
2013-01-24 12:33:00,21.0,-2.0,-100.00,WNW,294,6.0,14.0,35,0.00,,,0.00,555.000000,,2013-01-24 17:33:00,
2013-01-24 12:43:00,21.0,-2.0,-100.00,WNW,294,6.0,14.0,35,0.00,,,0.00,555.000000,,2013-01-24 17:43:00,
2013-01-24 12:53:00,21.0,-2.0,-100.00,WNW,294,6.0,14.0,35,0.00,,,0.00,555.000000,,2013-01-24 17:53:00,
2013-01-24 13:03:00,21.0,-2.0,-100.00,WNW,294,6.0,14.0,35,0.00,,,0.00,555.000000,,2013-01-24 18:03:00,
2013-01-24 13:33:00,23.0,-5.0,-100.00,NNW,338,7.0,17.0,28,0.00,,,0.00,529.000000,,2013-01-24 18:33:00,
2013-01-24 13:43:00,23.0,-5.0,-100.00,NNW,338,7.0,17.0,28,0.00,,,0.00,529.000000,,2013-01-24 18:43:00,
2013-01-24 13:53:00,23.0,-5.0,-100.00,NNW,338,7.0,17.0,28,0.00,,,0.00,529.000000,,2013-01-24 18:53:00,
2013-01-24 14:02:00,23.0,-5.0,-100.00,NNW,338,7.0,17.0,28,0.00,,,0.00,529.000000,,2013-01-24 19:02:00,
2013-01-24 14:33:00,23.0,-5.0,-100.00,NNW,327,5.0,18.0,28,0.00,,,0.00,284.000000,,2013-01-24 19:33:00,
2013-01-24 14:42:00,23.0,-5.0,-100.00,NNW,327,5.0,18.0,28,0.00,,,0.00,284.000000,,2013-01-24 19:42:00,
2013-01-24 14:53:00,23.0,-5.0,-100.00,NNW,327,5.0,18.0,28,0.00,,,0.00,284.000000,,2013-01-24 19:53:00,
2013-01-24 15:02:00,23.0,-5.0,-100.00,NNW,327,5.0,18.0,28,0.00,,,0.00,284.000000,,2013-01-24 20:02:00,
2013-01-24 15:33:00,22.0,-7.0,-100.00,WNW,292,11.0,21.0,27,0.00,,,-99.99,379.000000,,2013-01-24 20:33:00,
2013-01-24 15:43:00,22.0,-7.0,-100.00,WNW,292,11.0,21.0,27,0.00,,,-99.99,379.000000,,2013-01-24 20:43:00,
2013-01-24 15:53:00,22.0,-7.0,-100.00,WNW,292,11.0,21.0,27,0.00,,,-99.99,379.000000,,2013-01-24 20:53:00,
2013-01-24 16:03:00,22.0,-7.0,-100.00,WNW,292,11.0,21.0,27,0.00,,,-99.99,379.000000,,2013-01-24 21:03:00,
2013-01-24 16:33:00,21.0,-7.0,-100.00,NW,304,8.0,19.0,28,0.00,,,0.00,227.000000,,2013-01-24 21:33:00,
2013-01-24 16:43:00,21.0,-7.0,-100.00,NW,304,8.0,19.0,28,0.00,,,0.00,227.000000,,2013-01-24 21:43:00,
2013-01-24 16:53:00,21.0,-7.0,-100.00,NW,304,8.0,19.0,28,0.00,,,0.00,227.000000,,2013-01-24 21:53:00,
2013-01-24 17:03:00,21.0,-7.0,-100.00,NW,304,8.0,19.0,28,0.00,,,0.00,227.000000,,2013-01-24 22:03:00,
2013-01-24 17:33:00,18.0,-8.0,-100.00,WNW,298,7.0,19.0,30,0.00,,,0.00,55.000000,,2013-01-24 22:33:00,
2013-01-24 17:42:00,18.0,-8.0,-100.00,WNW,298,7.0,19.0,30,0.00,,,0.00,55.000000,,2013-01-24 22:42:00,
2013-01-24 17:53:00,18.0,-8.0,-100.00,WNW,298,7.0,19.0,30,0.00,,,0.00,55.000000,,2013-01-24 22:53:00,
2013-01-24 18:03:00,18.0,-8.0,-100.00,WNW,298,7.0,19.0,30,0.00,,,0.00,55.000000,,2013-01-24 23:03:00,
2013-01-24 18:32:00,17.0,-7.0,-100.00,WNW,289,6.0,18.0,33,0.00,,,0.00,1.000000,,2013-01-24 23:32:00,
2013-01-24 18:43:00,17.0,-7.0,-100.00,WNW,289,6.0,18.0,33,0.00,,,0.00,1.000000,,2013-01-24 23:43:00,
2013-01-24 18:52:00,17.0,-7.0,-100.00,WNW,289,6.0,18.0,33,0.00,,,0.00,1.000000,,2013-01-24 23:52:00,
2013-01-24 19:02:00,17.0,-7.0,-100.00,WNW,289,6.0,18.0,33,0.00,,,0.00,1.000000,,2013-01-25 00:02:00,
2013-01-24 19:32:00,16.0,-7.0,-100.00,WNW,284,9.0,22.0,35,0.00,,,0.00,0.000000,,2013-01-25 00:32:00,
2013-01-24 19:42:00,16.0,-7.0,-100.00,WNW,284,9.0,22.0,35,0.00,,,0.00,0.000000,,2013-01-25 00:42:00,
2013-01-24 19:53:00,16.0,-7.0,-100.00,WNW,284,9.0,22.0,35,0.00,,,0.00,0.000000,,2013-01-25 00:53:00,
2013-01-24 20:02:00,16.0,-7.0,-100.00,WNW,284,9.0,22.0,35,0.00,,,0.00,0.000000,,2013-01-25 01:02:00,
2013-01-24 20:32:00,15.0,-5.0,-100.00,West,273,8.0,18.0,40,0.00,,,0.00,0.000000,,2013-01-25 01:32:00,
2013-01-24 20:43:00,15.0,-5.0,-100.00,West,273,8.0,18.0,40,0.00,,,0.00,0.000000,,2013-01-25 01:43:00,
2013-01-24 20:52:00,15.0,-5.0,-100.00,West,273,8.0,18.0,40,0.00,,,0.00,0.000000,,2013-01-25 01:52:00,
2013-01-24 21:03:00,15.0,-5.0,-100.00,West,273,8.0,18.0,40,0.00,,,0.00,0.000000,,2013-01-25 02:03:00,
2013-01-24 21:33:00,15.0,-3.0,-100.00,West,259,9.0,17.0,43,0.00,,,0.00,0.000000,,2013-01-25 02:33:00,
2013-01-24 21:43:00,15.0,-3.0,-100.00,West,259,9.0,17.0,43,0.00,,,0.00,0.000000,,2013-01-25 02:43:00,
2013-01-24 21:53:00,15.0,-3.0,-100.00,West,259,9.0,17.0,43,0.00,,,0.00,0.000000,,2013-01-25 02:53:00,
2013-01-24 22:02:00,15.0,-3.0,-100.00,West,259,9.0,17.0,43,0.00,,,0.00,0.000000,,2013-01-25 03:02:00,
2013-01-24 22:33:00,14.0,-3.0,-100.00,WSW,251,9.0,21.0,45,0.00,,,0.00,0.000000,,2013-01-25 03:33:00,
2013-01-24 22:42:00,14.0,-3.0,-100.00,WSW,251,9.0,21.0,45,0.00,,,0.00,0.000000,,2013-01-25 03:42:00,
2013-01-24 22:53:00,14.0,-3.0,-100.00,WSW,251,9.0,21.0,45,0.00,,,0.00,0.000000,,2013-01-25 03:53:00,
2013-01-24 23:02:00,14.0,-3.0,-100.00,WSW,251,9.0,21.0,45,0.00,,,0.00,0.000000,,2013-01-25 04:02:00,
2013-01-24 23:32:00,13.0,-4.0,-100.00,West,274,10.0,23.0,45,0.00,,,0.00,0.000000,,2013-01-25 04:32:00,
2013-01-24 23:42:00,13.0,-4.0,-100.00,West,274,10.0,23.0,45,0.00,,,0.00,0.000000,,2013-01-25 04:42:00,
2013-01-24 23:52:00,13.0,-4.0,-100.00,West,274,10.0,23.0,45,0.00,,,0.00,0.000000,,2013-01-25 04:52:00,